TimeCDT,TemperatureF,Dew PointF,Humidity,Sea Level PressureIn,VisibilityMPH,Wind Direction,Wind SpeedMPH,Gust SpeedMPH,PrecipitationIn,Events,Conditions,WindDirDegrees,DateUTC
12:15 AM,34.2,28.0,78,29.91,10.0,NW,11.5,-,N/A,,Clear,310,2013-04-01 05:15:00
12:35 AM,35.1,27.3,73,29.92,10.0,NW,11.5,-,N/A,,Clear,320,2013-04-01 05:35:00
12:55 AM,35.6,26.6,70,29.93,10.0,NW,9.2,-,N/A,,Scattered Clouds,320,2013-04-01 05:55:00
1:15 AM,35.1,26.6,71,29.93,10.0,NW,9.2,-,N/A,,Scattered Clouds,320,2013-04-01 06:15:00
1:35 AM,34.5,26.1,71,29.94,10.0,NW,9.2,-,N/A,,Clear,320,2013-04-01 06:35:00
1:55 AM,32.7,25.5,75,29.95,10.0,NW,9.2,-,N/A,,Clear,310,2013-04-01 06:55:00
2:15 AM,31.6,25.3,78,29.96,10.0,NW,9.2,-,N/A,,Clear,310,2013-04-01 07:15:00
2:35 AM,31.1,24.8,77,29.96,10.0,NW,9.2,-,N/A,,Clear,310,2013-04-01 07:35:00
2:55 AM,30.0,24.8,81,29.97,10.0,NW,8.1,-,N/A,,Clear,310,2013-04-01 07:55:00
3:15 AM,28.9,24.3,83,29.97,10.0,NW,8.1,-,N/A,,Clear,310,2013-04-01 08:15:00
3:35 AM,29.7,24.6,81,29.98,10.0,NW,9.2,-,N/A,,Clear,310,2013-04-01 08:35:00
3:55 AM,28.4,23.7,83,29.99,10.0,NW,8.1,-,N/A,,Clear,310,2013-04-01 08:55:00
4:15 AM,28.2,23.5,83,29.99,10.0,NW,9.2,-,N/A,,Clear,310,2013-04-01 09:15:00
4:35 AM,28.4,23.0,80,30.00,10.0,NW,9.2,-,N/A,,Clear,310,2013-04-01 09:35:00
4:55 AM,28.2,23.0,81,30.01,10.0,NW,9.2,-,N/A,,Clear,310,2013-04-01 09:55:00
5:15 AM,29.1,23.4,79,30.01,10.0,NW,8.1,-,N/A,,Clear,310,2013-04-01 10:15:00
5:35 AM,29.3,23.0,77,30.02,10.0,NW,6.9,-,N/A,,Clear,320,2013-04-01 10:35:00
5:55 AM,30.0,22.5,73,30.03,10.0,NW,8.1,-,N/A,,Clear,320,2013-04-01 10:55:00
6:15 AM,29.7,22.3,74,30.04,10.0,NW,8.1,-,N/A,,Clear,320,2013-04-01 11:15:00
6:35 AM,29.3,22.1,75,30.05,10.0,NW,6.9,-,N/A,,Clear,320,2013-04-01 11:35:00
6:55 AM,29.3,22.1,75,30.06,10.0,NW,5.8,-,N/A,,Clear,320,2013-04-01 11:55:00
7:15 AM,29.8,22.5,74,30.07,10.0,NW,5.8,-,N/A,,Clear,320,2013-04-01 12:15:00
7:35 AM,30.9,22.6,71,30.08,10.0,NW,6.9,-,N/A,,Clear,320,2013-04-01 12:35:00
7:55 AM,32.0,21.0,64,30.09,10.0,NNW,8.1,-,N/A,,Clear,330,2013-04-01 12:55:00
8:15 AM,32.9,20.7,61,30.10,10.0,NNW,10.4,-,N/A,,Clear,330,2013-04-01 13:15:00
8:35 AM,33.8,16.5,49,30.11,10.0,NNW,10.4,16.1,N/A,,Clear,340,2013-04-01 13:35:00
8:55 AM,34.2,15.4,46,30.11,10.0,NNW,12.7,17.3,N/A,,Clear,330,2013-04-01 13:55:00
9:15 AM,35.1,16.0,46,30.11,10.0,NNW,8.1,16.1,N/A,,Clear,340,2013-04-01 14:15:00
9:35 AM,35.4,15.1,43,30.12,10.0,NNW,11.5,16.1,N/A,,Clear,330,2013-04-01 14:35:00
9:55 AM,36.0,16.2,45,30.12,10.0,NNW,10.4,17.3,N/A,,Clear,340,2013-04-01 14:55:00
10:15 AM,36.1,16.3,45,30.13,10.0,NW,12.7,17.3,N/A,,Scattered Clouds,310,2013-04-01 15:15:00
10:35 AM,36.7,16.7,44,30.13,10.0,NW,11.5,17.3,N/A,,Scattered Clouds,320,2013-04-01 15:35:00
10:55 AM,37.4,16.5,43,30.14,10.0,NW,15.0,24.2,N/A,,Scattered Clouds,310,2013-04-01 15:55:00
11:15 AM,37.8,15.6,41,30.14,10.0,NW,10.4,20.7,N/A,,Clear,310,2013-04-01 16:15:00
11:35 AM,37.8,16.3,42,30.14,10.0,NW,17.3,20.7,N/A,,Scattered Clouds,310,2013-04-01 16:35:00
11:55 AM,38.1,14.0,37,30.14,10.0,NNW,11.5,20.7,N/A,,Scattered Clouds,330,2013-04-01 16:55:00
12:15 PM,38.5,13.3,36,30.14,10.0,NW,15.0,26.5,N/A,,Clear,310,2013-04-01 17:15:00
12:35 PM,39.0,16.3,40,30.14,10.0,NW,16.1,23.0,N/A,,Scattered Clouds,310,2013-04-01 17:35:00
12:55 PM,38.8,14.4,37,30.14,10.0,NW,15.0,21.9,N/A,,Scattered Clouds,310,2013-04-01 17:55:00
1:15 PM,39.9,16.5,39,30.14,10.0,NW,17.3,23.0,N/A,,Scattered Clouds,310,2013-04-01 18:15:00
1:35 PM,39.0,15.4,38,30.14,10.0,NNW,12.7,21.9,N/A,,Scattered Clouds,330,2013-04-01 18:35:00
1:55 PM,40.1,15.1,36,30.14,10.0,NW,15.0,20.7,N/A,,Scattered Clouds,320,2013-04-01 18:55:00
2:15 PM,38.3,15.3,39,30.14,10.0,WNW,17.3,24.2,N/A,,Scattered Clouds,300,2013-04-01 19:15:00
2:35 PM,41.0,17.6,39,30.13,10.0,NW,18.4,24.2,N/A,,Scattered Clouds,310,2013-04-01 19:35:00
2:55 PM,40.3,16.7,39,30.14,10.0,WNW,17.3,26.5,N/A,,Scattered Clouds,300,2013-04-01 19:55:00
3:15 PM,40.3,15.8,37,30.13,10.0,NW,12.7,26.5,N/A,,Scattered Clouds,310,2013-04-01 20:15:00
3:35 PM,39.4,16.7,40,30.13,10.0,NW,11.5,21.9,N/A,,Scattered Clouds,320,2013-04-01 20:35:00
3:55 PM,41.0,17.1,38,30.13,10.0,NNW,11.5,21.9,N/A,,Scattered Clouds,330,2013-04-01 20:55:00
4:15 PM,41.7,17.1,37,30.12,10.0,NW,11.5,26.5,N/A,,Mostly Cloudy,320,2013-04-01 21:15:00
4:35 PM,41.2,16.9,38,30.12,10.0,NNW,12.7,39.1,N/A,,Mostly Cloudy,330,2013-04-01 21:35:00
4:55 PM,41.0,16.2,37,30.13,10.0,NNW,9.2,20.7,N/A,,Scattered Clouds,330,2013-04-01 21:55:00
5:15 PM,39.0,17.1,41,30.13,10.0,NW,13.8,-,N/A,,Clear,320,2013-04-01 22:15:00
5:35 PM,39.6,16.3,39,30.14,10.0,NW,13.8,21.9,N/A,,Clear,310,2013-04-01 22:35:00
5:55 PM,39.6,16.9,40,30.14,10.0,WNW,15.0,19.6,N/A,,Clear,300,2013-04-01 22:55:00
6:15 PM,38.3,17.4,43,30.14,10.0,NW,12.7,19.6,N/A,,Clear,310,2013-04-01 23:15:00
6:35 PM,37.4,17.6,45,30.14,10.0,NW,9.2,-,N/A,,Clear,310,2013-04-01 23:35:00
6:55 PM,37.6,17.2,44,30.14,10.0,NW,10.4,16.1,N/A,,Clear,320,2013-04-01 23:55:00
7:15 PM,36.0,18.0,48,30.14,10.0,NW,8.1,-,N/A,,Clear,320,2013-04-02 00:15:00
7:35 PM,34.7,18.1,51,30.14,10.0,NW,5.8,-,N/A,,Clear,320,2013-04-02 00:35:00
7:55 PM,31.8,18.7,58,30.14,10.0,NW,5.8,-,N/A,,Clear,310,2013-04-02 00:55:00
8:15 PM,30.7,18.7,61,30.16,10.0,NW,5.8,-,N/A,,Clear,320,2013-04-02 01:15:00
8:35 PM,28.6,18.3,65,30.16,10.0,NW,6.9,-,N/A,,Clear,310,2013-04-02 01:35:00
8:55 PM,28.4,19.4,69,30.17,10.0,NW,5.8,-,N/A,,Clear,310,2013-04-02 01:55:00
9:15 PM,28.0,19.4,70,30.17,10.0,NW,4.6,-,N/A,,Clear,310,2013-04-02 02:15:00
9:35 PM,26.6,19.4,74,30.18,10.0,WNW,5.8,-,N/A,,Clear,300,2013-04-02 02:35:00
9:55 PM,26.2,18.9,74,30.18,10.0,West,5.8,-,N/A,,Clear,270,2013-04-02 02:55:00
10:15 PM,24.8,19.2,79,30.19,10.0,WNW,5.8,-,N/A,,Clear,290,2013-04-02 03:15:00
10:35 PM,26.6,19.9,76,30.19,10.0,WNW,5.8,-,N/A,,Clear,300,2013-04-02 03:35:00
10:55 PM,25.5,19.4,78,30.19,10.0,WNW,8.1,-,N/A,,Clear,300,2013-04-02 03:55:00
11:15 PM,23.9,18.9,81,30.19,10.0,WNW,8.1,-,N/A,,Clear,300,2013-04-02 04:15:00
11:35 PM,25.5,20.1,80,30.19,10.0,NW,8.1,-,N/A,,Clear,310,2013-04-02 04:35:00
11:55 PM,27.7,20.3,74,30.19,10.0,NW,6.9,-,N/A,,Clear,310,2013-04-02 04:55:00